Tillbaka till svenska Fidonet
English   Information   Debug  
FILM   0/18
FNEWS_PUBLISH   5090
FN_SYSOP   42250
FN_SYSOP_OLD1   71952
FTP_FIDO   0/2
FTSC_PUBLIC   0/13992
FUNNY   0/4886
GENEALOGY.EUR   0/71
GET_INFO   105
GOLDED   0/408
HAM   0/16975
HOLYSMOKE   0/6791
HOT_SITES   0/1
HTMLEDIT   0/71
HUB203   466
HUB_100   264
HUB_400   39
HUMOR   0/29
IC   0/2851
INTERNET   0/424
INTERUSER   0/3
IP_CONNECT   719
JAMNNTPD   0/233
JAMTLAND   0/47
KATTY_KORNER   0/41
LAN   0/16
LINUX-USER   0/19
LINUXHELP   0/1155
LINUX   0/22471
LINUX_BBS   0/957
mail   18.68
mail_fore_ok   249
MENSA   0/341
MODERATOR   0/102
MONTE   0/992
MOSCOW_OKLAHOMA   0/1245
MUFFIN   0/783
MUSIC   0/321
N203_STAT   940
N203_SYSCHAT   313
NET203   321
NET204   69
NET_DEV   0/10
NORD.ADMIN   0/101
NORD.CHAT   0/2572
NORD.FIDONET   189
NORD.HARDWARE   0/28
NORD.KULTUR   0/114
NORD.PROG   0/32
NORD.SOFTWARE   0/88
NORD.TEKNIK   0/58
NORD   0/453
OCCULT_CHAT   0/93
OS2BBS   0/787
OS2DOSBBS   0/580
OS2HW   0/42
OS2INET   0/37
OS2LAN   0/134
OS2PROG   0/36
OS2REXX   0/113
OS2USER-L   207
OS2   0/4837
OSDEBATE   0/18996
PASCAL   0/490
PERL   0/457
PHP   0/45
POINTS   0/405
POLITICS   0/29554
POL_INC   0/14731
PSION   103
R20_ADMIN   1134
R20_AMATORRADIO   0/2
R20_BEST_OF_FIDONET   17
R20_CHAT   0/899
R20_DEPP   0/3
R20_DEV   400
R20_ECHO2   1992
R20_ECHOPRES   0/35
R20_ESTAT   0/719
R20_FIDONETPROG...
...RAM.MYPOINT
  0/2
R20_FIDONETPROGRAM   0/22
R20_FIDONET   0/248
R20_FILEFIND   0/24
R20_FILEFOUND   0/22
R20_HIFI   0/3
R20_INFO2   3886
R20_INTERNET   0/12940
R20_INTRESSE   0/60
R20_INTR_KOM   0/99
R20_KANDIDAT.CHAT   42
R20_KANDIDAT   28
R20_KOM_DEV   112
R20_KONTROLL   0/13380
R20_KORSET   0/18
R20_LOKALTRAFIK   0/24
R20_MODERATOR   0/1852
R20_NC   76
R20_NET200   245
R20_NETWORK.OTH...
...ERNETS
  0/13
R20_OPERATIVSYS...
...TEM.LINUX
  0/45
R20_PROGRAMVAROR   0/1
R20_REC2NEC   534
R20_SFOSM   0/341
R20_SF   0/108
R20_SPRAK.ENGLISH   0/1
R20_SQUISH   107
R20_TEST   2
R20_WORST_OF_FIDONET   21
RAR   0/9
RA_MULTI   106
RA_UTIL   0/162
REGCON.EUR   0/2072
REGCON   0/13
SCIENCE   0/1206
SF   0/239
SHAREWARE_SUPPORT   0/5146
SHAREWRE   0/14
SIMPSONS   0/169
STATS_OLD1   0/2539.065
STATS_OLD2   0/2530
STATS_OLD3   0/2395.095
STATS_OLD4   0/1692.25
SURVIVOR   0/495
SYSOPS_CORNER   0/3
SYSOP   0/84
TAGLINES   0/112
TEAMOS2   0/4530
TECH   0/2617
TEST.444   0/105
TRAPDOOR   0/19
TREK   0/755
TUB   0/290
UFO   0/40
UNIX   0/1316
USA_EURLINK   0/102
USR_MODEMS   0/1
VATICAN   0/2740
VIETNAM_VETS   0/14
VIRUS   0/378
VIRUS_INFO   0/201
VISUAL_BASIC   0/473
WHITEHOUSE   0/5187
WIN2000   0/101
WIN32   0/30
WIN95   0/4291
WIN95_OLD1   0/70272
WINDOWS   0/1517
WWB_SYSOP   0/419
WWB_TECH   0/810
ZCC-PUBLIC   0/1
ZEC   4

 
4DOS   0/134
ABORTION   0/7
ALASKA_CHAT   0/506
ALLFIX_FILE   0/1313
ALLFIX_FILE_OLD1   0/7997
ALT_DOS   0/152
AMATEUR_RADIO   0/1039
AMIGASALE   0/14
AMIGA   0/331
AMIGA_INT   0/1
AMIGA_PROG   0/20
AMIGA_SYSOP   0/26
ANIME   0/15
ARGUS   0/924
ASCII_ART   0/340
ASIAN_LINK   0/651
ASTRONOMY   0/417
AUDIO   0/92
AUTOMOBILE_RACING   0/105
BABYLON5   0/17862
BAG   135
BATPOWER   0/361
BBBS.ENGLISH   0/382
BBSLAW   0/109
BBS_ADS   0/5290
BBS_INTERNET   0/507
BIBLE   0/3563
BINKD   0/1119
BINKLEY   0/215
BLUEWAVE   0/2173
CABLE_MODEMS   0/25
CBM   0/46
CDRECORD   0/66
CDROM   0/20
CLASSIC_COMPUTER   0/378
COMICS   0/15
CONSPRCY   0/899
COOKING   42875
COOKING_OLD1   0/24719
COOKING_OLD2   0/40862
COOKING_OLD3   0/37489
COOKING_OLD4   0/35496
COOKING_OLD5   9370
C_ECHO   0/189
C_PLUSPLUS   0/31
DIRTY_DOZEN   0/201
DOORGAMES   0/2397
DOS_INTERNET   0/196
duplikat   6103
ECHOLIST   0/18295
EC_SUPPORT   0/318
ELECTRONICS   0/359
ELEKTRONIK.GER   1534
ENET.LINGUISTIC   0/13
ENET.POLITICS   0/4
ENET.SOFT   0/11701
ENET.SYSOP   34573
ENET.TALKS   0/32
ENGLISH_TUTOR   0/2000
EVOLUTION   0/1335
FDECHO   0/217
FDN_ANNOUNCE   0/7068
FIDONEWS   25344
FIDONEWS_OLD1   0/49742
FIDONEWS_OLD2   0/35949
FIDONEWS_OLD3   0/30874
FIDONEWS_OLD4   0/37224
FIDO_SYSOP   12979
FIDO_UTIL   0/180
FILEFIND   0/209
FILEGATE   0/212
Möte HAM, 16975 texter
 lista första sista föregående nästa
Text 4474, 908 rader
Skriven 2011-05-05 23:01:29 av Amsat List (1:323/120.0)
Ärende: [keps]  orb11125.amsa
=============================
[keps]  orb11125.amsa

Return-Path: <keps-bounces@amsat.org>
X-Rcpt: craig.healy@chowda.com
X-UIDL: 1304650586.221

SB KEPS @ AMSAT  $ORB11125.O
Orbital Elements  11125.OSCAR

HR AMSAT ORBITAL ELEMENTS FOR OSCAR SATELLITES
FROM WA5QGD FORT WORTH,TX May 5, 2011
Send Subscribe/unsubscribe to KEPS at http://www.amsat.org/mailman/listinfo/kep
BID: ORB11125.O
TO ALL RADIO AMATEURS BT

Satellite: AO-07
Catalog number: 07530
Epoch time:      11124.58202319
Element set:    0070
Inclination:      101.3930 deg
RA of node:       132.8442 deg
Eccentricity:    0.0011893
Arg of perigee:   006.2793 deg
Mean anomaly:     353.8428 deg
Mean motion:   12.53582238 rev/day
Decay rate:       -2.7e-07 rev/day^2
Epoch rev:           66872
Checksum:              280

Satellite: FO-29
Catalog number: 24278
Epoch time:      11124.94214898
Element set:    0592
Inclination:      098.5398 deg
RA of node:       274.9075 deg
Eccentricity:    0.0350838
Arg of perigee:   009.4586 deg
Mean anomaly:     351.2932 deg
Mean motion:   13.52960509 rev/day
Decay rate:       -5.5e-07 rev/day^2
Epoch rev:           72661
Checksum:              348

Satellite: SO-33
Catalog number: 25509
Epoch time:      11124.41329260
Element set:    0960
Inclination:      031.4312 deg
RA of node:       131.8958 deg
Eccentricity:    0.0354309
Arg of perigee:   218.7997 deg
Mean anomaly:     138.6688 deg
Mean motion:   14.28392393 rev/day
Decay rate:       3.21e-06 rev/day^2
Epoch rev:           65401
Checksum:              310

Satellite: RS-22
Catalog number: 27939
Epoch time:      11125.76741697
Element set:     229
Inclination:      097.8516 deg
RA of node:       341.7839 deg
Eccentricity:    0.0014450
Arg of perigee:   116.7996 deg
Mean anomaly:     243.4670 deg
Mean motion:   14.63571818 rev/day
Decay rate:       3.83e-06 rev/day^2
Epoch rev:           40613
Checksum:              336

Satellite: VO-52
Catalog number: 28650
Epoch time:      11124.68276755
Element set:    0786
Inclination:      097.6449 deg
RA of node:       169.7516 deg
Eccentricity:    0.0026006
Arg of perigee:   306.2618 deg
Mean anomaly:     053.6217 deg
Mean motion:   14.82034382 rev/day
Decay rate:      1.058e-05 rev/day^2
Epoch rev:           32430
Checksum:              312

Satellite: SO-67
Catalog number: 35870
Epoch time:      11125.84758567
Element set:     805
Inclination:      097.2846 deg
RA of node:       170.6116 deg
Eccentricity:    0.0002751
Arg of perigee:   135.6528 deg
Mean anomaly:     345.3049 deg
Mean motion:   15.20650881 rev/day
Decay rate:      3.257e-05 rev/day^2
Epoch rev:            9050
Checksum:              316

Satellite: HO-68
Catalog number: 36122
Epoch time:      11125.67425519
Element set:     345
Inclination:      100.4183 deg
RA of node:       187.1219 deg
Eccentricity:    0.0007344
Arg of perigee:   324.7730 deg
Mean anomaly:     035.2898 deg
Mean motion:   13.16285739 rev/day
Decay rate:       -4.5e-07 rev/day^2
Epoch rev:            6664
Checksum:              302

/EX
SB KEPS @ AMSAT  $ORB11125.D
Orbital Elements  11125.MICROS

HR AMSAT ORBITAL ELEMENTS FOR THE MICROSATS
FROM WA5QGD FORT WORTH,TX May 5, 2011
Send Subscribe/unsubscribe to KEPS at http://www.amsat.org/mailman/listinfo/kep
BID: ORB11125.D
TO ALL RADIO AMATEURS BT

Satellite: UO-11
Catalog number: 14781
Epoch time:      11124.86859911
Element set:    0547
Inclination:      098.0097 deg
RA of node:       181.7071 deg
Eccentricity:    0.0007945
Arg of perigee:   280.9363 deg
Mean anomaly:     079.0952 deg
Mean motion:   14.79957372 rev/day
Decay rate:       7.44e-06 rev/day^2
Epoch rev:           45938
Checksum:              349

Satellite: AO-16
Catalog number: 20439
Epoch time:      11125.88649918
Element set:     180
Inclination:      098.3806 deg
RA of node:       076.9262 deg
Eccentricity:    0.0010237
Arg of perigee:   292.8655 deg
Mean anomaly:     067.1445 deg
Mean motion:   14.31916447 rev/day
Decay rate:       1.30e-06 rev/day^2
Epoch rev:           11156
Checksum:              308

Satellite: LO-19
Catalog number: 20442
Epoch time:      11124.92463744
Element set:    0107
Inclination:      098.3428 deg
RA of node:       080.5165 deg
Eccentricity:    0.0011038
Arg of perigee:   287.5373 deg
Mean anomaly:     072.4603 deg
Mean motion:   14.32142365 rev/day
Decay rate:       1.22e-06 rev/day^2
Epoch rev:           11160
Checksum:              262

Satellite: AO-27
Catalog number: 22825
Epoch time:      11125.72916146
Element set:     809
Inclination:      098.5278 deg
RA of node:       071.0653 deg
Eccentricity:    0.0009219
Arg of perigee:   044.1486 deg
Mean anomaly:     316.0427 deg
Mean motion:   14.29344064 rev/day
Decay rate:       1.06e-06 rev/day^2
Epoch rev:           91812
Checksum:              298

Satellite: IO-26
Catalog number: 22826
Epoch time:      11125.38643433
Element set:     552
Inclination:      098.5231 deg
RA of node:       071.2181 deg
Eccentricity:    0.0009755
Arg of perigee:   039.4010 deg
Mean anomaly:     320.7877 deg
Mean motion:   14.29605267 rev/day
Decay rate:       1.00e-06 rev/day^2
Epoch rev:           91819
Checksum:              290

Satellite: GO-32
Catalog number: 25397
Epoch time:      11125.23764213
Element set:     471
Inclination:      098.3225 deg
RA of node:       120.1004 deg
Eccentricity:    0.0002111
Arg of perigee:   059.3857 deg
Mean anomaly:     300.7534 deg
Mean motion:   14.23206990 rev/day
Decay rate:       1.25e-06 rev/day^2
Epoch rev:           66585
Checksum:              266

